Location: Meriden
(44.0740°N, 93.3870°W)
Time: 12:20:31
(UTC-05:00)

Amateur Radio Satellites - All Passes

Search period start: 27 July 2016 11:50
Search period end: 28 July 2016 11:50
Location: Meriden, 44.0740°N, 93.3870°W

Satellite Date Start Highest point End Downlink Frequencies (MHz)
Time Altitude Azimuth
HUMSAT D 27 Jul 11:52:28 11:56:40 64° 285° (WNW) 12:00:44 437.325/437.525
AISAT 27 Jul 11:57:06 11:59:42 15° 91° (E) 12:02:17 437.250
ANTELSAT 27 Jul 12:04:10 12:06:52 15° 270° (W) 12:09:36 437.575/2403.000
Cosmos 2491 27 Jul 12:08:04 12:09:39 11° 290° (WNW) 12:11:15 435.465 / 435.565
UKube-1 27 Jul 12:11:09 12:12:09 11° 89° (E) 12:13:08 .
Oscar 19 27 Jul 12:11:35 12:13:55 13° 57° (ENE) 12:16:15 437.125/150
FUNcube-1 27 Jul 12:16:14 12:17:52 12° 301° (WNW) 12:19:29 145.935
ZACube-1 27 Jul 12:17:38 12:18:51 11° 301° (WNW) 12:20:04 437.345
ESTCUBE 1 27 Jul 12:31:17 12:35:43 55° 101° (E) 12:40:07 437.505/2401.250
NANOSAT C BR1 27 Jul 12:32:26 12:36:23 38° 262° (W) 12:40:22 145.865
M-CUBED/EXP-1 PRIME 27 Jul 12:34:19 12:38:11 26° 299° (WNW) 12:42:05 437.505
DUCHIFAT 1 27 Jul 12:36:40 12:40:34 36° 263° (W) 12:44:32 145.980
SPROUT 27 Jul 12:42:13 12:45:28 20° 93° (E) 12:48:42 437.525
VELOX 1 27 Jul 12:47:17 12:51:35 47° 100° (E) 12:55:52 145.980
CUBEBUG 1 27 Jul 12:48:00 12:52:20 56° 101° (E) 12:56:40 437.445
50 SAT 27 Jul 12:49:04 12:52:36 52° 100° (E) 12:56:06 437.505
BUGSAT 1 27 Jul 12:50:14 12:54:15 56° 259° (W) 12:58:22 437.445
QB50P1 27 Jul 12:55:51 12:59:06 21° 267° (W) 13:02:23 145.935-145.965
AUBIESAT-1 27 Jul 13:00:51 13:04:00 18° 303° (WNW) 13:07:10 437.475
POPSAT HIP 1 27 Jul 13:02:38 13:05:38 19° 268° (W) 13:08:39 437.405
AO-7 27 Jul 13:09:37 13:12:11 12° 37° (NE) 13:14:46 29.400- 29.500
Cosmos 2504 27 Jul 13:13:26 13:21:12 33° 293° (WNW) 13:28:56 435.465 / 435.565
AIST 1 27 Jul 13:15:41 13:19:11 25° 89° (E) 13:22:42
RS-15 27 Jul 13:16:36 13:27:00 31° 16° (NNE) 13:37:30 29.354- 29.394
QB50P2 27 Jul 13:26:24 13:26:56 10° 272° (W) 13:27:27 145.880/145.840
Gurwin Techsat 1B 27 Jul 13:30:38 13:35:13 31° 65° (ENE) 13:39:51 435.225
DX 1 27 Jul 13:31:04 13:35:27 82° 287° (WNW) 13:39:50 434.975-435.025
JAS-2 27 Jul 13:32:07 13:37:47 41° 261° (W) 13:42:58 435.910
AISAT 27 Jul 13:32:08 13:36:31 56° 288° (WNW) 13:40:53 437.250
TISAT 1 27 Jul 13:37:04 13:40:07 19° 93° (E) 13:43:09 437.305
UKube-1 27 Jul 13:44:22 13:48:42 75° 286° (WNW) 13:53:00 .
ITAMSAT 1 27 Jul 13:45:37 13:48:36 16° 58° (ENE) 13:51:36 435.822/435.867
Oscar 19 27 Jul 13:47:21 13:52:28 88° 76° (ENE) 13:57:38 437.125/150
GONETS M04 27 Jul 13:55:24 13:57:22 11° 70° (ENE) 13:59:20
ESTCUBE 1 27 Jul 14:09:14 14:12:06 17° 298° (WNW) 14:14:56 437.505/2401.250
CUSAT 1 27 Jul 14:09:24 14:10:29 11° 73° (ENE) 14:11:37 437.405
SPROUT 27 Jul 14:17:32 14:21:33 38° 290° (WNW) 14:25:33 437.525
AO-85 27 Jul 14:22:36 14:27:55 63° 120° (ESE) 14:33:00 145.980
Cosmos 2499 27 Jul 14:23:25 14:27:08 13° 73° (ENE) 14:30:48 435.465 / 435.565
50 SAT 27 Jul 14:24:27 14:25:48 12° 297° (WNW) 14:27:09 437.505
VELOX 1 27 Jul 14:24:35 14:27:43 19° 296° (WNW) 14:30:51 145.980
CUBEBUG 1 27 Jul 14:25:29 14:28:11 16° 297° (WNW) 14:30:53 437.445
ITUPSAT 1 27 Jul 14:28:34 14:30:51 13° 89° (E) 14:33:08 437.325
AIST 1 27 Jul 14:53:02 14:56:41 27° 287° (WNW) 15:00:22
AO-7 27 Jul 14:55:03 15:02:49 45° 60° (ENE) 15:10:36 29.400- 29.500
Gurwin Techsat 1B 27 Jul 15:10:08 15:15:03 38° 263° (W) 15:20:01 435.225
TISAT 1 27 Jul 15:11:56 15:15:56 41° 290° (WNW) 15:19:55 437.305
SWISSCUBE 27 Jul 15:19:48 15:24:25 48° 100° (E) 15:29:00 437.505
ITAMSAT 1 27 Jul 15:22:10 15:27:25 81° 256° (WSW) 15:32:40 435.822/435.867
RS-15 27 Jul 15:30:25 15:42:41 62° 47° (NE) 15:54:49 29.354- 29.394
Oscar 19 27 Jul 15:30:51 15:32:30 11° 273° (W) 15:34:08 437.125/150
SO-50 27 Jul 15:39:03 15:42:06 17° 34° (NE) 15:45:04 436.795
BEESAT 27 Jul 15:41:03 15:45:50 71° 103° (ESE) 15:50:34 436.000
GONETS M04 27 Jul 15:43:44 15:52:12 61° 92° (E) 16:00:45
CUSAT 1 27 Jul 15:49:47 15:52:26 29° 263° (W) 15:55:36 437.405
AO-85 27 Jul 16:04:23 16:08:47 26° 318° (NW) 16:12:58 145.980
ITUPSAT 1 27 Jul 16:04:26 16:09:12 71° 287° (WNW) 16:13:55 437.325
HORYU 2 27 Jul 16:07:14 16:10:13 18° 62° (ENE) 16:13:13 437.375
Cosmos 2499 27 Jul 16:09:51 16:18:37 67° 93° (E) 16:27:09 435.465 / 435.565
DANDE 27 Jul 16:15:53 16:18:23 44° 263° (W) 16:21:07 436.750
MOZHAYETS 4 27 Jul 16:19:27 16:23:11 24° 94° (E) 16:26:53
STARS 27 Jul 16:22:20 16:23:45 11° 89° (E) 16:25:09 437.465
AO-7 27 Jul 16:47:33 16:55:31 47° 260° (W) 17:03:33 29.400- 29.500
SWISSCUBE 27 Jul 16:58:21 17:01:52 21° 297° (WNW) 17:05:23 437.505
CUTE-I 27 Jul 17:06:08 17:09:05 15° 57° (ENE) 17:12:02 437.470
KKS-1 27 Jul 17:18:32 17:23:04 88° 101° (E) 17:27:33 437.445
SO-50 27 Jul 17:18:37 17:23:18 86° 55° (NE) 17:27:49 436.795
BEESAT 27 Jul 17:20:22 17:23:03 15° 300° (WNW) 17:25:43 436.000
NOAA 15 27 Jul 17:23:22 17:27:39 26° 64° (ENE) 17:31:56 137.62
PHONESAT 2.4 27 Jul 17:33:02 17:35:17 19° 158° (SSE) 17:37:32 2401.200-2431.200
LilacSat-2 27 Jul 17:33:52 17:36:14 16° 65° (ENE) 17:38:38 437.200
CUBESAT XI-V 27 Jul 17:39:58 17:43:29 21° 93° (E) 17:46:59 437.345
HORYU 2 27 Jul 17:41:59 17:46:22 53° 259° (W) 17:50:48 437.375
GONETS M04 27 Jul 17:42:03 17:49:34 32° 293° (WNW) 17:57:10
NOAA 18 27 Jul 17:43:25 17:48:15 32° 64° (ENE) 17:53:06 137.9125
RS-15 27 Jul 17:43:28 17:54:54 47° 251° (WSW) 18:06:10 29.354- 29.394
GOMX 1 27 Jul 17:45:05 17:47:56 18° 63° (ENE) 17:50:52 467.674
BEESAT 3 27 Jul 17:54:37 17:55:48 11° 109° (ESE) 17:56:59 437.485
STARS 27 Jul 17:56:10 18:00:37 74° 285° (WNW) 18:05:02 437.465
MOZHAYETS 4 27 Jul 17:56:15 18:00:26 36° 291° (WNW) 18:04:35
HO-68 27 Jul 18:01:53 18:04:34 12° 46° (NE) 18:07:14 435.675
Cosmos 2499 27 Jul 18:04:45 18:12:20 31° 293° (WNW) 18:19:46 435.465 / 435.565
Cubesat XI-IV 27 Jul 18:19:36 18:24:52 60° 71° (ENE) 18:30:11 437.490
BRITE-PL 27 Jul 18:21:44 18:25:53 86° 254° (WSW) 18:30:06 437.365/2234.400
CUTE-I 27 Jul 18:43:01 18:48:24 86° 255° (WSW) 18:53:49 437.470
CANX-2 27 Jul 18:55:52 18:57:36 12° 61° (ENE) 18:59:19 2200.000
KKS-1 27 Jul 18:57:32 18:58:56 11° 302° (WNW) 19:00:19 437.445
SO-50 27 Jul 19:01:33 19:03:01 11° 253° (WSW) 19:04:28 436.795
NOAA 15 27 Jul 19:02:12 19:07:11 44° 261° (W) 19:12:12 137.62
LilacSat-2 27 Jul 19:06:30 19:10:12 43° 261° (W) 19:13:57 437.200
PHONESAT 2.4 27 Jul 19:08:27 19:11:22 39° 174° (S) 19:14:17 2401.200-2431.200
CUTE 1.7 + AOD 2 27 Jul 19:08:31 19:10:51 15° 62° (ENE) 19:13:10 437.475
DOVE 4 27 Jul 19:11:44 19:15:59 64° 74° (ENE) 19:20:31 437.250
CUBESAT XI-V 27 Jul 19:16:42 19:21:02 41° 290° (WNW) 19:25:22 437.345
CINEMA 3 27 Jul 19:20:24 19:24:08 25° 65° (ENE) 19:28:01 145.822/145.860
STRAND 1 27 Jul 19:20:52 19:23:47 15° 90° (E) 19:26:40 437.568
GOMX 1 27 Jul 19:21:41 19:25:41 44° 262° (W) 19:29:52 467.674
NOAA 18 27 Jul 19:23:37 19:28:46 39° 262° (W) 19:33:58 137.9125
BEESAT 3 27 Jul 19:28:59 19:32:54 71° 307° (NW) 19:36:51 437.485
BEESAT 2 27 Jul 19:36:03 19:39:59 74° 122° (ESE) 19:43:58 435.950
HO-68 27 Jul 19:43:47 19:50:44 55° 67° (ENE) 19:57:44 435.675
SEEDS 27 Jul 19:45:28 19:48:53 24° 67° (ENE) 19:52:19 437.485
YUBILEINY 27 Jul 19:48:17 19:55:07 24° 62° (ENE) 20:01:53 435.215
PCSat 27 Jul 19:53:19 19:58:41 68° 117° (ESE) 20:04:06 145.827
COMPASS 1 27 Jul 19:56:27 19:59:43 22° 67° (ENE) 20:02:59 437.405
Cubesat XI-IV 27 Jul 20:01:33 20:05:21 19° 269° (W) 20:09:10 437.490
UWE-3 27 Jul 20:02:02 20:04:45 16° 61° (ENE) 20:07:28 435.000/436.395/437.385
ZACube-1 27 Jul 20:03:32 20:04:20 10° 58° (ENE) 20:05:07 437.345
CUBEBUG 2 27 Jul 20:23:30 20:27:39 34° 68° (ENE) 20:31:54 437.445
AAUSAT CUBESAT 2 27 Jul 20:23:38 20:27:24 34° 70° (ENE) 20:31:10 437.432
CUTE-I 27 Jul 20:27:30 20:29:12 11° 273° (W) 20:30:55 437.470
CANX-2 27 Jul 20:28:36 20:32:52 73° 257° (WSW) 20:37:10 2200.000
Oscar 11 27 Jul 20:41:03 20:44:30 23° 66° (ENE) 20:47:58 145.826/435.025
CUTE 1.7 + AOD 2 27 Jul 20:41:59 20:46:13 59° 259° (W) 20:50:27 437.475
AUBIESAT-1 27 Jul 20:42:02 20:42:57 11° 52° (NE) 20:43:53 437.475
PHONESAT 2.4 27 Jul 20:44:46 20:47:36 34° 191° (S) 20:50:27 2401.200-2431.200
DELFI C3 27 Jul 20:45:08 20:45:45 10° 61° (ENE) 20:46:22 145.870
DOVE 4 27 Jul 20:52:21 20:54:15 13° 273° (W) 20:56:13 437.250
CINEMA 3 27 Jul 20:56:54 21:01:04 37° 264° (W) 21:05:29 145.822/145.860
STRAND 1 27 Jul 20:58:22 21:03:28 70° 287° (WNW) 21:08:32 437.568
BEESAT 3 27 Jul 21:09:50 21:11:18 12° 326° (NW) 21:12:47 437.485
Cosmos 2504 27 Jul 21:10:57 21:17:22 24° 63° (ENE) 21:23:26 435.465 / 435.565
O/OREOS (USA 219) 27 Jul 21:11:11 21:15:37 73° 110° (ESE) 21:20:06 437.305
ISS 27 Jul 21:11:54 21:14:29 22° 136° (SE) 21:17:06 145.825
HUMSAT D 27 Jul 21:12:16 21:13:47 12° 60° (ENE) 21:15:17 437.325/437.525
Cosmos 2491 27 Jul 21:13:27 21:21:00 35° 84° (E) 21:28:34 435.465 / 435.565
AO-85 27 Jul 21:14:20 21:16:50 14° 32° (NNE) 21:19:13 145.980
BEESAT 2 27 Jul 21:15:50 21:18:18 16° 322° (NW) 21:20:48 435.950
SEEDS 27 Jul 21:20:41 21:24:27 31° 264° (W) 21:28:15 437.485
COMPASS 1 27 Jul 21:31:18 21:35:05 33° 263° (W) 21:38:55 437.405
HO-68 27 Jul 21:32:34 21:38:45 31° 265° (W) 21:45:02 435.675
FUNcube-1 27 Jul 21:34:00 21:38:32 76° 75° (ENE) 21:43:08 145.935
ZACube-1 27 Jul 21:35:16 21:39:49 83° 75° (ENE) 21:44:27 437.345
UWE-3 27 Jul 21:36:05 21:40:38 66° 258° (WSW) 21:45:18 435.000/436.395/437.385
PCSat 27 Jul 21:38:17 21:42:36 23° 318° (NW) 21:46:55 145.827
AIST 2 27 Jul 21:41:24 21:45:30 75° 122° (ESE) 21:49:38 435.215
YUBILEINY 27 Jul 21:44:09 21:53:02 82° 265° (W) 22:01:49 435.215
M-CUBED/EXP-1 PRIME 27 Jul 21:47:19 21:51:03 57° 67° (ENE) 21:55:09 437.505
PRISM 27 Jul 21:55:41 21:59:47 71° 103° (ESE) 22:03:52 437.425
AAUSAT CUBESAT 2 27 Jul 21:59:45 22:02:57 21° 266° (W) 22:06:10 437.432
CUBEBUG 2 27 Jul 22:00:24 22:04:18 27° 266° (W) 22:08:19 437.445
AUBIESAT-1 27 Jul 22:12:46 22:16:37 89° 251° (WSW) 22:20:49 437.475
DELFI C3 27 Jul 22:16:02 22:20:01 76° 258° (WSW) 22:24:00 145.870
Oscar 11 27 Jul 22:16:28 22:20:27 35° 263° (W) 22:24:28 145.826/435.025
ANTELSAT 27 Jul 22:17:47 22:19:26 12° 88° (E) 22:21:04 437.575/2403.000
PHONESAT 2.4 27 Jul 22:22:01 22:23:36 13° 206° (SSW) 22:25:11 2401.200-2431.200
STRAND 1 27 Jul 22:40:58 22:41:42 10° 305° (NW) 22:42:26 437.568
HUMSAT D 27 Jul 22:44:28 22:48:47 79° 258° (WSW) 22:53:06 437.325/437.525
ISS 27 Jul 22:47:30 22:50:43 54° 334° (NNW) 22:53:56 145.825
O/OREOS (USA 219) 27 Jul 22:53:02 22:55:34 15° 310° (NW) 22:58:07 437.305
AO-85 27 Jul 22:53:42 22:58:10 75° 54° (NE) 23:02:15 145.980
DX 1 27 Jul 22:54:54 22:56:27 12° 59° (ENE) 22:58:00 434.975-435.025
AISAT 27 Jul 22:56:05 22:58:55 17° 62° (ENE) 23:01:46 437.250
TIGRISAT 27 Jul 22:57:22 23:01:24 29° 95° (E) 23:05:20 435.000
Cosmos 2504 27 Jul 23:03:32 23:11:42 74° 266° (W) 23:19:15 435.465 / 435.565
UKube-1 27 Jul 23:07:00 23:08:48 12° 60° (ENE) 23:10:36 .
Cosmos 2491 27 Jul 23:08:58 23:17:27 55° 285° (WNW) 23:25:59 435.465 / 435.565
UNISAT 6 27 Jul 23:13:41 23:18:09 44° 98° (E) 23:22:30 437.425
FUNcube-1 27 Jul 23:13:43 23:15:19 12° 272° (W) 23:16:56 145.935
ZACube-1 27 Jul 23:15:45 23:16:41 11° 273° (W) 23:17:39 437.345
AIST 2 27 Jul 23:21:48 23:24:28 17° 322° (NW) 23:27:11 435.215
M-CUBED/EXP-1 PRIME 27 Jul 23:24:26 23:26:04 12° 267° (W) 23:27:45 437.505
50 SAT 27 Jul 23:28:03 23:31:16 29° 69° (ENE) 23:34:28 437.505
ESTCUBE 1 27 Jul 23:31:57 23:36:22 60° 73° (ENE) 23:40:49 437.505/2401.250
QB50P2 27 Jul 23:32:10 23:33:29 11° 89° (E) 23:34:47 145.880/145.840
PRISM 27 Jul 23:33:02 23:34:33 12° 299° (WNW) 23:36:02 437.425
POLYITAN 1 27 Jul 23:34:42 23:36:08 11° 89° (E) 23:37:34 437.675
SPROUT 27 Jul 23:37:27 23:40:32 20° 65° (ENE) 23:43:38 437.525
YUBILEINY 27 Jul 23:43:14 23:48:21 17° 285° (WNW) 23:53:28 435.215
CUBEBUG 1 27 Jul 23:45:10 23:49:22 55° 73° (ENE) 23:53:36 437.445
VELOX 1 27 Jul 23:45:48 23:50:01 49° 72° (ENE) 23:54:17 145.980
ANTELSAT 27 Jul 23:52:03 23:56:43 76° 285° (WNW) 00:01:14 437.575/2403.000
NANOSAT C BR1 28 Jul 00:15:16 00:19:02 29° 96° (E) 00:22:46 145.865
DUCHIFAT 1 28 Jul 00:19:10 00:22:57 30° 96° (E) 00:26:43 145.980
ISS 28 Jul 00:25:00 00:27:39 22° 353° (N) 00:30:17 145.825
DX 1 28 Jul 00:27:41 00:32:00 80° 255° (WSW) 00:36:22 434.975-435.025
TISAT 1 28 Jul 00:30:28 00:33:19 18° 64° (ENE) 00:36:11 437.305
AISAT 28 Jul 00:30:43 00:34:59 52° 260° (W) 00:39:19 437.250
BUGSAT 1 28 Jul 00:31:13 00:34:15 19° 93° (E) 00:37:17 437.445
TIGRISAT 28 Jul 00:33:58 00:38:03 31° 293° (WNW) 00:42:04 435.000
AO-85 28 Jul 00:36:31 00:37:49 11° 254° (WSW) 00:39:06 145.980
QB50P1 28 Jul 00:37:48 00:42:02 55° 100° (E) 00:46:14 145.935-145.965
JAS-2 28 Jul 00:39:07 00:43:01 20° 93° (E) 00:47:06 435.910
UKube-1 28 Jul 00:39:58 00:44:15 74° 257° (WSW) 00:48:35 .
POPSAT HIP 1 28 Jul 00:44:18 00:48:35 64° 101° (E) 00:52:50 437.405
UNISAT 6 28 Jul 00:51:04 00:54:33 21° 296° (WNW) 00:57:58 437.425
AIST 1 28 Jul 00:57:29 01:01:50 81° 80° (E) 01:06:12
Cosmos 2504 28 Jul 00:59:56 01:03:24 13° 287° (WNW) 01:06:45 435.465 / 435.565
50 SAT 28 Jul 01:02:14 01:04:56 19° 266° (W) 01:07:38 437.505
QB50P2 28 Jul 01:05:29 01:09:46 70° 285° (WNW) 01:14:01 145.880/145.840
POLYITAN 1 28 Jul 01:08:07 01:12:25 69° 285° (WNW) 01:16:40 437.675
ESTCUBE 1 28 Jul 01:11:12 01:13:35 14° 270° (W) 01:15:58 437.505/2401.250
SPROUT 28 Jul 01:12:08 01:16:12 42° 262° (W) 01:20:18 437.525
Cosmos 2491 28 Jul 01:14:03 01:16:42 11° 309° (NW) 01:19:21 435.465 / 435.565
BEESAT 28 Jul 01:14:16 01:16:21 13° 58° (ENE) 01:18:26 436.000
CUBEBUG 1 28 Jul 01:23:38 01:26:00 14° 269° (W) 01:28:24 437.445
VELOX 1 28 Jul 01:23:59 01:26:47 17° 268° (W) 01:29:35 145.980
ITUPSAT 1 28 Jul 01:36:17 01:39:45 20° 62° (ENE) 01:43:13 437.325
NANOSAT C BR1 28 Jul 01:51:05 01:54:40 27° 293° (WNW) 01:58:15 145.865
GONETS M04 28 Jul 01:52:12 01:59:59 33° 68° (ENE) 02:07:43
DUCHIFAT 1 28 Jul 01:54:59 01:58:33 26° 293° (WNW) 02:02:04 145.980
Oscar 19 28 Jul 01:57:46 02:02:12 28° 95° (E) 02:06:36 437.125/150
Cosmos 2499 28 Jul 02:00:57 02:07:08 24° 63° (ENE) 02:12:58 435.465 / 435.565
ISS 28 Jul 02:02:00 02:04:48 26° 13° (NNE) 02:07:36 145.825
TISAT 1 28 Jul 02:04:36 02:08:38 45° 261° (W) 02:12:42 437.305
BUGSAT 1 28 Jul 02:05:47 02:09:48 41° 289° (WNW) 02:13:48 437.445
BEESAT 3 28 Jul 02:08:14 02:10:39 15° 38° (NE) 02:13:03 437.485
QB50P1 28 Jul 02:14:48 02:17:23 16° 298° (WNW) 02:19:57 145.935-145.965
BEESAT 2 28 Jul 02:16:34 02:18:08 12° 34° (NE) 02:19:41 435.950
POPSAT HIP 1 28 Jul 02:21:38 02:23:51 14° 299° (WNW) 02:26:04 437.405
JAS-2 28 Jul 02:23:17 02:28:26 55° 289° (WNW) 02:33:59 435.910
SWISSCUBE 28 Jul 02:27:24 02:32:09 66° 73° (ENE) 02:36:55 437.505
KKS-1 28 Jul 02:44:47 02:46:15 12° 59° (ENE) 02:47:45 437.445
BEESAT 28 Jul 02:48:38 02:53:26 86° 256° (WSW) 02:58:15 436.000
PCSat 28 Jul 02:57:27 03:00:49 16° 36° (NE) 03:04:10 145.827
ITUPSAT 1 28 Jul 03:12:32 03:17:13 52° 260° (W) 03:21:55 437.325
CUSAT 1 28 Jul 03:14:50 03:16:41 13° 94° (E) 03:18:21 437.405
STARS 28 Jul 03:20:18 03:22:28 14° 60° (ENE) 03:24:38 437.465
MOZHAYETS 4 28 Jul 03:22:36 03:26:33 28° 67° (ENE) 03:30:30
Gurwin Techsat 1B 28 Jul 03:24:13 03:29:33 77° 102° (ESE) 03:34:52 435.225
ITAMSAT 1 28 Jul 03:33:52 03:38:30 32° 96° (E) 03:43:05 435.822/435.867
Oscar 19 28 Jul 03:36:49 03:41:36 39° 292° (WNW) 03:46:23 437.125/150
ISS 28 Jul 03:38:16 03:41:32 87° 212° (SSW) 03:44:47 145.825
DANDE 28 Jul 03:44:39 03:47:36 15° 93° (E) 03:50:10 436.750
BEESAT 3 28 Jul 03:44:51 03:48:49 77° 239° (WSW) 03:52:46 437.485
GONETS M04 28 Jul 03:48:42 03:57:17 60° 269° (W) 04:05:53
BEESAT 2 28 Jul 03:52:41 03:56:42 70° 54° (NE) 04:00:41 435.950
Cosmos 2499 28 Jul 03:53:17 04:01:07 70° 266° (W) 04:08:20 435.465 / 435.565
SWISSCUBE 28 Jul 04:07:47 04:10:24 14° 270° (W) 04:13:01 437.505
KKS-1 28 Jul 04:17:42 04:22:08 85° 255° (WSW) 04:26:38 437.445
AIST 2 28 Jul 04:24:17 04:26:20 13° 35° (NE) 04:28:24 435.215
PCSat 28 Jul 04:39:45 04:45:12 74° 58° (ENE) 04:50:36 145.827
CUBESAT XI-V 28 Jul 04:44:41 04:48:26 25° 66° (ENE) 04:52:11 437.345
AO-7 28 Jul 04:46:52 04:55:05 57° 103° (ESE) 05:03:13 29.400- 29.500
STARS 28 Jul 04:53:52 04:58:15 70° 257° (WSW) 05:02:41 437.465
CUSAT 1 28 Jul 04:55:03 04:58:34 31° 283° (WNW) 05:01:26 437.405
MOZHAYETS 4 28 Jul 04:59:28 05:03:38 32° 264° (W) 05:07:47
Gurwin Techsat 1B 28 Jul 05:05:38 05:08:52 17° 301° (WNW) 05:12:06 435.225
ITAMSAT 1 28 Jul 05:13:17 05:17:57 35° 294° (WNW) 05:22:36 435.822/435.867
ISS 28 Jul 05:16:13 05:17:30 12° 229° (SW) 05:18:46 145.825
DANDE 28 Jul 05:24:59 05:30:16 53° 281° (WNW) 05:34:15 436.750
HORYU 2 28 Jul 05:31:46 05:35:30 25° 95° (E) 05:39:12 437.375
BEESAT 2 28 Jul 05:32:33 05:33:58 12° 251° (WSW) 05:35:24 435.950
O/OREOS (USA 219) 28 Jul 05:40:59 05:44:31 22° 54° (NE) 05:48:03 437.305
Cosmos 2499 28 Jul 05:50:02 05:52:29 12° 288° (WNW) 05:54:55 435.465 / 435.565
GONETS M04 28 Jul 05:50:22 05:52:06 11° 290° (WNW) 05:53:50
RS-15 28 Jul 05:57:44 06:06:58 30° 102° (ESE) 06:16:33 29.354- 29.394
AIST 2 28 Jul 06:01:21 06:05:33 76° 56° (NE) 06:09:43 435.215
NOAA 18 28 Jul 06:06:44 06:07:39 10° 87° (E) 06:08:35 137.9125
CUBESAT XI-V 28 Jul 06:21:24 06:25:38 36° 263° (W) 06:29:55 437.345
BRITE-PL 28 Jul 06:23:57 06:28:08 28° 95° (E) 06:32:35 437.365/2234.400
PCSat 28 Jul 06:24:35 06:27:57 17° 255° (WSW) 06:31:18 145.827
Cubesat XI-IV 28 Jul 06:36:09 06:40:08 21° 92° (E) 06:44:06 437.490
STRAND 1 28 Jul 06:37:38 06:41:53 27° 64° (ENE) 06:46:08 437.568
LilacSat-2 28 Jul 06:39:07 06:41:47 18° 92° (E) 06:44:26 437.200
AO-7 28 Jul 06:40:06 06:47:32 38° 303° (WNW) 06:54:57 29.400- 29.500
CUTE-I 28 Jul 06:58:54 07:03:44 33° 96° (E) 07:08:30 437.470
HORYU 2 28 Jul 07:08:03 07:12:05 33° 292° (WNW) 07:16:05 437.375
DOVE 4 28 Jul 07:09:18 07:12:55 19° 91° (E) 07:16:36 437.250
NOAA 15 28 Jul 07:15:22 07:20:36 61° 102° (ESE) 07:25:49 137.62
O/OREOS (USA 219) 28 Jul 07:19:49 07:24:08 45° 252° (WSW) 07:28:28 437.305
GOMX 1 28 Jul 07:20:32 07:25:27 47° 99° (E) 07:30:35 467.674
Cosmos 2491 28 Jul 07:21:40 07:27:29 19° 58° (ENE) 07:33:17 435.465 / 435.565
SO-50 28 Jul 07:34:57 07:38:32 21° 111° (ESE) 07:42:06 436.795
AIST 2 28 Jul 07:42:01 07:43:25 11° 252° (WSW) 07:44:49 435.215
NOAA 18 28 Jul 07:43:35 07:49:11 78° 104° (ESE) 07:54:42 137.9125
BRITE-PL 28 Jul 08:02:15 08:06:39 37° 290° (WNW) 08:11:22 437.365/2234.400
RS-15 28 Jul 08:06:28 08:18:02 83° 305° (NW) 08:30:17 29.354- 29.394
LilacSat-2 28 Jul 08:12:40 08:16:13 35° 289° (WNW) 08:19:44 437.200
CANX-2 28 Jul 08:13:10 08:15:59 17° 92° (E) 08:18:46 2200.000
Cubesat XI-IV 28 Jul 08:15:19 08:20:33 54° 289° (WNW) 08:25:44 437.490
STRAND 1 28 Jul 08:15:59 08:20:50 42° 261° (W) 08:25:44 437.568
CUTE 1.7 + AOD 2 28 Jul 08:26:05 08:29:16 21° 93° (E) 08:32:26 437.475
CUTE-I 28 Jul 08:38:57 08:43:45 35° 294° (WNW) 08:48:31 437.470
DOVE 4 28 Jul 08:45:51 08:50:55 60° 287° (WNW) 08:56:07 437.250
PRISM 28 Jul 08:46:15 08:50:16 61° 73° (ENE) 08:54:17 437.425
CINEMA 3 28 Jul 08:49:25 08:54:20 50° 99° (E) 08:59:09 145.822/145.860
YUBILEINY 28 Jul 08:52:32 08:59:09 25° 79° (E) 09:05:48 435.215
NOAA 15 28 Jul 08:56:11 08:59:55 20° 299° (WNW) 09:03:39 137.62
HO-68 28 Jul 08:57:14 09:04:13 50° 100° (E) 09:11:07 435.675
GOMX 1 28 Jul 08:59:13 09:03:16 25° 294° (WNW) 09:07:28 467.674
SEEDS 28 Jul 09:02:40 09:06:32 36° 97° (E) 09:10:22 437.485
COMPASS 1 28 Jul 09:12:23 09:16:06 32° 96° (E) 09:19:49 437.405
SO-50 28 Jul 09:13:49 09:18:38 57° 309° (NW) 09:23:25 436.795
Cosmos 2491 28 Jul 09:17:01 09:25:50 82° 81° (E) 09:34:38 435.465 / 435.565
ANTELSAT 28 Jul 09:17:45 09:20:13 14° 60° (ENE) 09:22:41 437.575/2403.000
FUNcube-1 28 Jul 09:22:29 09:24:39 13° 89° (E) 09:26:48 145.935
ZACube-1 28 Jul 09:23:46 09:26:19 15° 89° (E) 09:28:50 437.345
UWE-3 28 Jul 09:24:57 09:28:41 24° 93° (E) 09:32:19 435.000/436.395/437.385
NOAA 18 28 Jul 09:25:39 09:29:10 17° 303° (WNW) 09:32:41 137.9125
AAUSAT CUBESAT 2 28 Jul 09:39:20 09:43:21 51° 99° (E) 09:47:21 437.432
CANX-2 28 Jul 09:48:03 09:52:04 43° 288° (WNW) 09:56:02 2200.000
CUBEBUG 2 28 Jul 09:48:55 09:53:37 61° 100° (E) 09:58:10 437.445
Cosmos 2504 28 Jul 09:51:59 09:57:56 20° 77° (ENE) 10:03:49 435.465 / 435.565
DELFI C3 28 Jul 09:54:00 09:55:35 12° 90° (E) 09:57:09 145.870
TIGRISAT 28 Jul 09:57:07 10:01:11 31° 67° (ENE) 10:05:19 435.000
CUTE 1.7 + AOD 2 28 Jul 10:01:21 10:05:13 36° 290° (WNW) 10:09:04 437.475
Oscar 11 28 Jul 10:01:53 10:05:53 36° 97° (E) 10:09:51 145.826/435.025
UNISAT 6 28 Jul 10:13:26 10:17:53 47° 71° (ENE) 10:22:24 437.425
RS-15 28 Jul 10:22:04 10:32:37 35° 334° (NNW) 10:43:37 29.354- 29.394
PRISM 28 Jul 10:24:28 10:25:58 12° 270° (W) 10:27:27 437.425
QB50P2 28 Jul 10:26:44 10:28:09 11° 60° (ENE) 10:29:34 145.880/145.840
CINEMA 3 28 Jul 10:27:16 10:31:06 22° 296° (WNW) 10:34:53 145.822/145.860
HUMSAT D 28 Jul 10:27:52 10:30:16 15° 90° (E) 10:32:40 437.325/437.525
POLYITAN 1 28 Jul 10:29:15 10:30:47 12° 60° (ENE) 10:32:19 437.675
SEEDS 28 Jul 10:38:53 10:42:01 21° 294° (WNW) 10:45:08 437.485
HO-68 28 Jul 10:45:19 10:51:42 36° 299° (WNW) 10:58:05 435.675
YUBILEINY 28 Jul 10:46:12 10:55:00 76° 280° (W) 11:03:53 435.215
COMPASS 1 28 Jul 10:48:15 10:51:31 23° 293° (WNW) 10:54:45 437.405
ANTELSAT 28 Jul 10:51:39 10:56:17 74° 257° (WSW) 11:01:01 437.575/2403.000
JAS-2 28 Jul 10:56:50 10:58:20 11° 56° (NE) 10:59:49 435.910
FUNcube-1 28 Jul 10:56:54 11:01:21 63° 287° (WNW) 11:05:40 145.935
SO-50 28 Jul 10:57:44 11:00:09 14° 330° (NNW) 11:02:33 436.795
ZACube-1 28 Jul 10:58:34 11:03:00 56° 287° (WNW) 11:07:18 437.345
M-CUBED/EXP-1 PRIME 28 Jul 10:59:03 11:03:28 38° 103° (ESE) 11:07:50 437.505
UWE-3 28 Jul 11:00:59 11:05:14 37° 291° (WNW) 11:09:22 435.000/436.395/437.385
NANOSAT C BR1 28 Jul 11:08:50 11:12:24 27° 67° (ENE) 11:15:59 145.865
DUCHIFAT 1 28 Jul 11:12:28 11:16:03 27° 68° (ENE) 11:19:40 145.980
Cosmos 2491 28 Jul 11:15:25 11:21:35 22° 282° (WNW) 11:27:47 435.465 / 435.565
AAUSAT CUBESAT 2 28 Jul 11:16:02 11:18:26 15° 297° (WNW) 11:20:50 437.432
BUGSAT 1 28 Jul 11:22:54 11:25:30 16° 63° (ENE) 11:28:08 437.445
AUBIESAT-1 28 Jul 11:23:58 11:28:34 56° 105° (ESE) 11:33:06 437.475
ESTCUBE 1 28 Jul 11:25:18 11:26:38 11° 88° (E) 11:27:59 437.505/2401.250
CUBEBUG 2 28 Jul 11:26:45 11:29:44 17° 298° (WNW) 11:32:39 437.445
DELFI C3 28 Jul 11:26:55 11:30:46 55° 287° (WNW) 11:34:37 145.870
QB50P1 28 Jul 11:31:23 11:35:28 48° 72° (ENE) 11:39:36 145.935-145.965
TIGRISAT 28 Jul 11:33:44 11:37:49 30° 265° (W) 11:41:57 435.000
POPSAT HIP 1 28 Jul 11:37:52 11:42:02 56° 73° (ENE) 11:46:14 437.405
Oscar 11 28 Jul 11:38:28 11:41:49 22° 294° (WNW) 11:45:08 145.826/435.025
